Regional Weather Roundup
Issued by NWS

Home | Current Version | Previous Version | Text Only | Print | Product List | Glossary Off
Versions: 1 2 3 4 5 6 7 8 9 10 11 12 13 14 15 16 17 18 19 20 21 22 23 24 25 26 27 28 29 30 31 32 33 34 35 36 37 38 39 40 41 42 43 44 45 46 47 48 49 50

000
ASUS43 KMKX 260600
RWRWI

WISCONSIN REGIONAL WEATHER ROUNDUP
NATIONAL WEATHER SERVICE MILWAUKEE/SULLIVAN WI
1200 AM CST WED NOV 26 2014

NOTE: "FAIR" INDICATES FEW OR NO CLOUDS BELOW 12,000 FEET WITH NO
SIGNIFICANT WEATHER AND/OR OBSTRUCTIONS TO VISIBILITY.

WIZ001-002-006>008-014>016-023>028-260700-
NORTHWEST WISCONSIN

CITY           SKY/WX    TMP DP  RH WIND       PRES   REMARKS
SUPERIOR ARPT  CLOUDY    19  13  77 SW3       30.10S
ASHLAND        CLOUDY    14  11  87 CALM      30.11R
6HR MIN TEMP:  10; 6HR MAX TEMP:  14;

HAYWARD        CLOUDY    19  15  84 S3        30.07S
6HR MIN TEMP:  13; 6HR MAX TEMP:  19;

SIREN          CLOUDY    21  17  83 CALM      30.07R
CUMBERLAND     CLOUDY    21  16  79 SE5       30.05S WCI  15
RICE LAKE      CLOUDY    22  17  81 SE3       30.09R
CHETEK         CLOUDY    21  17  82 E5        30.07F WCI  15
LADYSMITH      CLOUDY    21  17  83 E6        30.08S WCI  14
EAU CLAIRE     NOT AVBL
MENOMONIE      CLOUDY    24  18  78 E5        30.08S WCI  18
NEW RICHMOND   CLOUDY    24  18  77 SE3       30.06S
OSCEOLA        CLOUDY    25  19  79 SE6       30.08S WCI  18
$$

WIZ003>005-009-010-017-018-260700-
NORTH CENTRAL WISCONSIN

CITY           SKY/WX    TMP DP  RH WIND       PRES   REMARKS
MANITOWISH WTR MOCLDY    -1  -4  85 CALM      30.06R
ARBOR VITAE    MOCLDY     6   2  86 CALM      30.06S
WOODRUFF       MOCLDY     6   2  86 CALM      30.06S
RHINELANDER    CLOUDY     5   2  87 CALM      30.09R
6HR MIN TEMP:  -2; 6HR MAX TEMP:  10;

EAGLE RIVER    CLEAR     -1  -6  80 CALM      30.08R
LAND O LAKES   CLEAR     -6 -11  81 CALM      30.08R
PHILLIPS       CLOUDY    15  12  90 CALM      30.06S
TOMAHAWK       CLOUDY     8   5  89 CALM      30.09R
MEDFORD        CLOUDY    19  15  84 SE3       30.06S
MERRILL        CLOUDY     8   6  89 CALM      30.10R
$$

WIZ029-030-035-036-043>047-260700-
CENTRAL WISCONSIN

CITY           SKY/WX    TMP DP  RH WIND       PRES   REMARKS
WAUSAU         CLOUDY    12  10  92 E6        30.10R WCI   3
6HR MIN TEMP:   9; 6HR MAX TEMP:  16;

MOSINEE        CLOUDY    14  12  92 E3        30.12R
MARSHFIELD     CLOUDY    21  15  78 SE3       30.09R
6HR MIN TEMP:  19; 6HR MAX TEMP:  21;

STEVENS POINT  CLOUDY     9   6  91 CALM      30.13R
WAUPACA        CLEAR      9   6  84 CALM      30.16R
WAUTOMA        NOT AVBL
WISC RAPIDS    CLOUDY    18  13  80 CALM      30.13S
6HR MIN TEMP:  13; 6HR MAX TEMP:  18;

CAMP DOUGLAS   NOT AVBL
$$

WIZ011>013-019>022-031-037>040-048>050-260700-
NORTHEAST WISCONSIN

CITY           SKY/WX    TMP DP  RH WIND       PRES   REMARKS
ANTIGO         MOCLDY    -6 -10  86 CALM      30.10S
SHAWANO        CLEAR     12   8  87 CALM      30.16R
OCONTO         PTCLDY    12  11  97 CALM      30.17S
STURGEON BAY   CLOUDY    21  12  68 CALM      30.17R
6HR MIN TEMP:  21; 6HR MAX TEMP:  25;

GREEN BAY      PTCLDY    12  11  95 CALM      30.18R FOG
6HR MIN TEMP:  12; 6HR MAX TEMP:  22;

MANITOWOC      NOT AVBL
APPLETON       CLEAR     16  14  93 CALM      30.15S
CLINTONVILLE   CLEAR      7   3  85 CALM      30.16R
OSHKOSH        PTCLDY    13  10  88 CALM      30.16R
6HR MIN TEMP:  11; 6HR MAX TEMP:  21;

$$

WIZ032>034-041-042-053>061-260700-
SOUTHWEST WISCONSIN

CITY           SKY/WX    TMP DP  RH WIND       PRES   REMARKS
LA CROSSE      CLOUDY    19  14  81 SE5       30.12R WCI  12
6HR MIN TEMP:  17; 6HR MAX TEMP:  24;

SPARTA         CLOUDY    14  13  96 CALM      30.13R
VIROQUA        MOCLDY    15  13  91 SE7       30.07F WCI   5
BOSCOBEL       PTCLDY     8   4  83 CALM      30.14S
6HR MIN TEMP:   8; 6HR MAX TEMP:  18;

PRAIRIE DU CHI PTCLDY    16  12  85 E3        30.12F
PLATTEVILLE    CLEAR     15  13  93 CALM      30.13S
$$

WIZ056-057-062-063-064-067-068-260700-
SOUTH CENTRAL WISCONSIN

CITY           SKY/WX    TMP DP  RH WIND       PRES   REMARKS
REEDSBURG      PTCLDY     9   6  90 CALM      30.12S
BARABOO/DELLS  PTCLDY    13  11  92 CALM      30.12S
LONE ROCK      NOT AVBL
MINERAL POINT  CLEAR     16  12  86 SE5       30.10F WCI   9
MADISON        CLEAR     14   9  80 CALM      30.15S
6HR MIN TEMP:  12; 6HR MAX TEMP:  22;

MIDDLETON        N/A      9   6  86 CALM      30.16S VSB 3/4
WATERTOWN      CLEAR     11  10  95 CALM      30.16R
MONROE         CLEAR     14  14 100 SW6       30.14R WCI   5
JANESVILLE     LGT SNOW  10   9  92 CALM      30.17R
$$

WIZ051-052-058>065-066-070>072-260700-
SOUTHEAST WISCONSIN

CITY           SKY/WX    TMP DP  RH WIND       PRES   REMARKS
MILWAUKEE      CLOUDY    20  15  81 S7        30.18S WCI  11
6HR MIN TEMP:  19; 6HR MAX TEMP:  22;

WAUKESHA       CLEAR     14  12  92 S3        30.17R
MILWAUKEE/TIMM CLOUDY    21  14  73 S5        30.19R WCI  15
RACINE         PTCLDY    18  14  84 SW5       30.20S WCI  11
6HR MIN TEMP:  18; 6HR MAX TEMP:  23;

BURLINGTON     CLEAR      8   7  94 CALM      30.17S
KENOSHA        CLEAR     13  11  92 CALM      30.18S FOG
6HR MIN TEMP:  13; 6HR MAX TEMP:  22;

FOND DU LAC    PTCLDY    14  11  87 S3        30.16R
6HR MIN TEMP:  14; 6HR MAX TEMP:  21;

SHEBOYGAN      CLOUDY    21  15  78 S6        30.18R WCI  13
6HR MIN TEMP:  20; 6HR MAX TEMP:  21;

WEST BEND      CLOUDY    21  16  79 S3        30.16R
JUNEAU         PTCLDY    13  11  93 S5        30.17R WCI   5
$$

LSZ147-162-260700-
LAKE SUPERIOR

STATION/POSITION TIME  TEMP    WIND        PRES    WAVE
                       AIR SEA DIR/SP/G            HT/PER
                 (UTC) (F)     (DEG/KT/KT) (MB)    (FT/S)
DEVILS ISLAND    0500   24     230/ 12/ 15 1020.1R
PORT WING        0500   17     150/  2/  3 1019.3R
SAXON HARBOR     0500   12     200/  5/  7 1019.3R
$$

LMZ867-665-643>646-260700-
LAKE MICHIGAN

STATION/POSITION TIME  TEMP    WIND        PRES    WAVE
                       AIR SEA DIR/SP/G            HT/PER
                 (UTC) (F)     (DEG/KT/KT) (MB)    (FT/S)
CHAMBERS ISLAND  0500   23     220/  3/ 10 1021.3R
N MID LAKE BUOY  0450   29 42  250/  8/ 12 1021.4R   1
NORTHPORT PIER   0504   25     280/  2/  7 1021.0R
SISTER BAY       0513          230/  2/  5   N/A
KEWAUNEE LAKESHO 0500   21     290/  3/  6 1020.7R
SHEBOYGAN LAKESH 0500   22 36  240/  6/  6 1022.8F
PORT WASHINGTON  0500   22     210/  2/  6 1022.7R
MILWAUKEE LAKESH 0500   21     250/  9/ 11   N/A
S MID LAKE BUOY  0450   28 42  210/ 12/ 16 1023.0R   2/ 6
KENOSHA   LAKESH 0500   19     220/  6/ 10 1022.4S
$$

TC  - TEMPERATURE IN CELSIUS
VSB - VISIBILITY IN STATUTE MILES
WCI - WIND CHILL INDEX
HX  - HEAT INDEX




USA.gov is the U.S. government's official web portal to all federal, state and local government web resources and services.